Location: Alphen
(52.1351°N, 4.6549°E)
Time: 01:54:04
(UTC+00:00)

USA 307 - Pass Details

Date: 27 January 2021
Orbit: 565 x 580 km, 54.0° (Epoch: 26 February)

Event Time Altitude Azimuth Distance (km) Brightness Sun altitude
Exits shadow 06:20:05 10° 253° (WSW) 1,872 5.0 -10.6°
Reaches altitude 10° 06:20:06 10° 253° (WSW) 1,861 5.0 -10.6°
Maximum altitude 06:24:21 88° 340° (NNW) 573 2.9 -9.9°
Drops below altitude 10° 06:28:36 10° 73° (ENE) 1,868 6.4 -9.3°
Sets 06:30:51 0° 74° (ENE) 2,768 7.4 -9.0°
